Regional Weather Roundup
Issued by NWS

Home | Current Version | Previous Version | Graphics & Text | Print | Product List | Glossary On
Versions: 1 2 3 4 5 6 7 8 9 10 11 12 13 14 15 16 17 18 19 20 21 22 23 24 25 26 27 28 29 30 31 32 33 34 35 36 37 38 39 40 41 42 43 44 45 46 47 48 49 50
000
ASUS43 KBIS 292010
RWRND

NORTH DAKOTA REGIONAL WEATHER ROUNDUP
NATIONAL WEATHER SERVICE BISMARCK ND
300 PM CDT SAT AUG 29 2015

NOTE: "FAIR" INDICATES FEW OR NO CLOUDS BELOW 12,000 FEET WITH NO
SIGNIFICANT WEATHER AND/OR OBSTRUCTIONS TO VISIBILITY.


NDZ001>003-009>011-017-292100-
NORTHWEST NORTH DAKOTA

CITY           SKY/WX    TMP DP  RH WIND       PRES   REMARKS
WILLISTON      MOSUNNY   89  49  25 S5        29.85F HAZE
MINOT          CLOUDY    89  51  27 S12       29.83F HAZE
MINOT AFB      CLOUDY    93  53  26 S10       29.82F HX  90
$$

NDZ018>021-031>035-040>046-292100-
SOUTHWEST NORTH DAKOTA

CITY           SKY/WX    TMP DP  RH WIND       PRES   REMARKS
BISMARCK       PTSUNNY   91  60  35 S7        29.89F HAZE    HX  90
DICKINSON      MOSUNNY   98  39  13 S18G24    29.88F HX  93
GARRISON         N/A     92  56  29 S8        29.86F HX  90
HETTINGER ARPT SUNNY     96  47  18 S12       29.94F HX  92
$$

NDZ004>008-012>016-024-026-027-054-292100-
NORTHEAST NORTH DAKOTA

CITY           SKY/WX    TMP DP  RH WIND       PRES   REMARKS
GRAND FORKS    PTSUNNY   79  68  69 S9        29.88F
GRND FRKS AFB  MOSUNNY   80  69  69 S9        29.88F
DEVILS LAKE    PTSUNNY   81  64  57 SE5       29.87S
$$

NDZ022-023-025-028>030-036>039-047>053-292100-
SOUTHEAST NORTH DAKOTA

CITY           SKY/WX    TMP DP  RH WIND       PRES   REMARKS
FARGO          MOSUNNY   82  67  60 S14       29.92F
JAMESTOWN      MOSUNNY   83  69  62 S6        29.90F
$$



USA.gov is the U.S. government's official web portal to all federal, state and local government web resources and services.